Current weather by "City, St" or "zip code"  
 

Current Conditions: Hanchey AHP / Ozark, AL

Overcast


76.0 F

Last Updated on Oct 21 2021, 10:58 am CDT
Humidity: 69%
Wind Speed: N 0.0 mph
Barometer 30.17 in
Dewpoint: 65.3 F
Visibility: 10.00 mi
Precip: --
Heat Index: NA
Wind Chill: NA
Current conditions at:

Hanchey AHP / Ozark, AL (KHEY)

Lat: 31.35 Lon: 85.66667

Local Radar Image active severe weather and emergency alerts image image weather storm and storm spotter reports image weather observation monitoring service image
Local
Radar
Active
Alerts
Storm Reports Obs
Monitoring

Sign-up For Email & Text Message Weather Alert Notification Services



Advertise Here

Observation History for Hanchey AHP / Ozark, AL


Time Wind
(mph)
Vis
(mi)
Weather Precip (in) Temperature (F) Relative
Humidity
Wind
Chill
(F)
Heat
Index
(F)
Pressure
Air Dwpt altimeter
(in)
sea level
(mb)
Rmks
10:58 am CDT N 0.0 10.00 Overcast -- 76.0 65.3 69% NA NA 30.17 1021.6
9:58 am CDT SW 5.8 10.00 Overcast -- 75.0 64.4 70% NA NA 30.17 1021.7
8:58 am CDT S 4.6 10.00 Mostly Cloudy -- 70.0 61.9 77% NA NA 30.17 1021.7
7:58 am CDT E 3.5 10.00 Fair -- 64.0 62.8 95% NA NA 30.15 1021.0
5:58 am CDT N 0.0 10.00 Overcast -- 63.0 62.4 97% NA NA 30.14 1020.7
4:58 am CDT N 0.0 10.00 Overcast -- 63.0 62.1 98% NA NA 30.13 1020.3
3:58 am CDT N 0.0 10.00 Partly Cloudy -- 62.0 61.5 99% NA NA 30.14 1020.6
2:58 am CDT N 0.0 10.00 Fair -- 63.0 62.1 96% NA NA 30.14 1020.6
1:58 am CDT N 0.0 10.00 A Few Clouds -- 66.0 62.6 88% NA NA 30.15 1021.0
12:58 am CDT N 0.0 10.00 Mostly Cloudy -- 65.0 62.4 92% NA NA 30.16 1021.3
11:58 pm CDT N 0.0 10.00 Fair -- 66.0 62.6 89% NA NA 30.16 1021.3
10:58 pm CDT N 0.0 10.00 Fair -- 68.0 61.9 81% NA NA 30.19 M
9:58 pm CDT S 4.6 10.00 Fair -- 67.0 62.4 85% NA NA 30.18 M
8:58 pm CDT N 0.0 10.00 Fair -- 70.0 61.5 75% NA NA 30.18 M
7:58 pm CDT N 0.0 10.00 Fair -- 72.0 61.7 71% NA NA 30.16 M
6:58 pm CDT E 3.5 9.00 Partly Cloudy -- 72.0 63.1 75% NA NA 30.15 1021.1
5:58 pm CDT N 0.0 7.00 Fair -- 75.0 62.6 65% NA NA 30.15 1021.0
4:58 pm CDT SE 4.6 8.00 A Few Clouds -- 81.0 60.8 51% NA 82 30.14 1020.7
3:58 pm CDT E 3.5 8.00 Overcast -- 80.0 60.1 52% NA 81 30.15 1021.0
2:58 pm CDT N 0.0 10.00 A Few Clouds -- 81.0 59.0 48% NA 81 30.16 1021.4
1:58 pm CDT E 4.6 10.00 Fair -- 81.0 60.8 51% NA 82 30.18 1022.0
12:58 pm CDT SE 8.1 10.00 Fair -- 79.0 59.0 51% NA NA 30.21 1023.1
11:58 am CDT SE 8.1 10.00 Fair -- 79.0 59.4 51% NA NA 30.23 1023.7

Regional Weather Observation


Enterprise Municipal Airport, AL (KEDN)

Mostly Cloudy
74.0 F

Fort Rucker, Lowe Army Heliport, AL (KLOR)

Overcast
76.0 F

Cairns Army Air Field / Ozark, AL (KOZR)

A Few Clouds
77.0 F

Hanchey AHP / Ozark, AL (KHEY)

Overcast
76.0 F

Troy, Troy Municipal Airport, AL (KTOI)

Rain
69.0 F

Dothan, Dothan Regional Airport, AL (KDHN)

Mostly Cloudy
79.0 F

Advertise Here


Advertise Here